Location: Acts Church of Fort Worth
(32.6786°N, 97.2668°W)
Time: 08:08:15
(UTC+00:00)

Okean 3 - Pass Details

Date: 18 January 2026
Orbit: 541 x 564 km, 82.5° (Epoch: 9 February)

Event Time Altitude Azimuth Distance (km) Brightness Sun altitude
Rises 00:06:24 0° 166° (SSE) 2,736 7.0 -4.4°
Reaches altitude 10° 00:08:42 10° 157° (SSE) 1,841 6.0 -4.9°
Maximum altitude 00:12:23 35° 92° (E) 919 4.0 -5.6°
Drops below altitude 10° 00:16:04 10° 26° (NNE) 1,840 5.6 -6.3°
Sets 00:18:22 0° 17° (NNE) 2,734 6.5 -6.8°
